Location: Grasslands National Park East Block
(49.0708°N, 106.5295°W)
Time: 14:14:58
(UTC-06:00)

Vanguard 1 - Pass Details

Date: 25 September 2019
Orbit: 653 x 3830 km, 34.3° (Epoch: 12 October)

Event Time Altitude Azimuth Distance (km) Brightness Sun altitude
Rises 09:33:20 0° 277° (W) 7,244 14.0 23.5°
Reaches altitude 10° 09:45:13 10° 245° (WSW) 5,204 13.5 25.1°
Maximum altitude 09:47:03 10° 238° (WSW) 4,986 13.5 25.4°
Drops below altitude 10° 09:48:47 10° 230° (SW) 4,826 13.5 25.6°
Sets 09:56:54 0° 193° (SSW) 4,868 13.9 26.7°
